Hauptseite
METAR-TAF:

METAR-TAF

Flughäfen :

Prague, Tschechien

Breite: 50-12-59N, Länge: 014-23-42E, Höhe: 280 m

Beobachtung

Neuester Wetterbericht von vor 9 Stunden und 1 Minuten, um 15:00 UTC
Wind 4 kt aus Ost
Temperatur -4°C
Luftfeuchtigkeit 86%
Luftdruck 1010 hPa
Sichtweite: 4000 m
Durchbrochene Bewölkung in der Höhe von 2300 ft
feuchter Dunst

METAR: LKVO 221500Z 08004KT 4000 BR BKN023 M04/M06 Q1010

Zeit: 01:01 (00:01 UTC)


TAF: fehlend

Wetterbeobachtungen und Prognosen von mehr als 4000 Flughäfen (METAR und TAF Bericht).

Die verfügbaren Stationen werden durch gelbe und rote Markierungen auf der Karte dargestellt.

Führen Sie die Maus auf sie, um den Namen der Station zu sehen.

Darauf klicken, um die Beobachtung von Wetterbeobachtungen und Prognosen zu sehen.

Um die Karte zu ändern : klicken Sie auf den grünen Tasten mit einem schwarzen Kreuz Zum Vergrößern, auf den grünen Button mit einem Gedankenstrich zu verkleinern, oder auf die grünen Pfeile für benachbarte Karten.


METAR-TAF: